Location: Boiro
(42.6475°N, 8.8834°W)
Time: 09:50:05
(UTC+01:00)

Vanguard 3 - Pass Details

Date: 09 December 2021
Orbit: 508 x 3260 km, 33.3° (Epoch: 24 January)

Event Time Altitude Azimuth Distance (km) Brightness Sun altitude
Rises 10:04:33 0° 280° (W) 7,140 11.4 9.5°
Reaches altitude 10° 10:10:38 10° 271° (W) 5,899 11.1 10.3°
Maximum altitude 10:23:44 27° 223° (SW) 3,773 10.7 12.0°
Drops below altitude 10° 10:33:03 10° 171° (S) 4,102 11.9 13.1°
Sets 10:36:24 0° 159° (SSE) 4,705 12.5 13.5°
